When you browse on this site, cookies collect data to enhance your experience and personalize the content and advertising you see.
Visit our Privacy Policy to learn more. By continuing to use the site, you agree to this use of cookies and data.
  • en Belgique
  • Liste des pays
  • À 7 jours
  • Température de l'eau
  • Carte satellitaire
  • Carte météo
  • Widgets météo
  • user-avatar
    Se connecter

    Météo par heure à Lezhё

    Ce jour, 20 Janvier, Dimanche

    Heure Température Précipitation Vent Pression Humidité
    00:00 +6°C° 0.1 mm 2 m/s 735 mmHg 80%
    01:00 +6°C° 0 mm 2 m/s 735 mmHg 82%
    02:00 +6°C° 0.8 mm 2 m/s 735 mmHg 83%
    03:00 +7°C° 0.8 mm 1 m/s 735 mmHg 85%
    04:00 +7°C° 0.8 mm 1 m/s 734 mmHg 86%
    05:00 +7°C° 1.6 mm 1 m/s 734 mmHg 87%
    06:00 +7°C° 1.6 mm 1 m/s 734 mmHg 89%
    07:00 +6°C° 0 mm 1 m/s 734 mmHg 91%
    08:00 +7°C° 0.1 mm 1 m/s 735 mmHg 90%
    09:00 +8°C° 0.1 mm 1 m/s 735 mmHg 89%
    10:00 +7°C° 0.1 mm 2 m/s 735 mmHg 88%
    11:00 +8°C° 0.2 mm 2 m/s 735 mmHg 86%
    12:00 +9°C° 0.2 mm 2 m/s 735 mmHg 84%
    13:00 +10°C° 0.2 mm 2 m/s 735 mmHg 82%
    14:00 +10°C° 0.3 mm 1 m/s 735 mmHg 84%
    15:00 +10°C° 0.3 mm 1 m/s 735 mmHg 85%
    16:00 +9°C° 0.3 mm 1 m/s 735 mmHg 87%
    17:00 +8°C° 0 mm 1 m/s 735 mmHg 88%
    18:00 +7°C° 0 mm 1 m/s 735 mmHg 89%
    19:00 +6°C° 0 mm 2 m/s 735 mmHg 89%
    20:00 +5°C° 0 mm 2 m/s 736 mmHg 88%
    21:00 +5°C° 0 mm 2 m/s 736 mmHg 86%
    22:00 +5°C° 0 mm 2 m/s 736 mmHg 85%
    23:00 +5°C° 0 mm 2 m/s 736 mmHg 83%

    Demain, 21 Janvier, Lundi

    Heure Température Précipitation Vent Pression Humidité
    00:00 +5°C° 0 mm 2 m/s 736 mmHg 82%
    01:00 +5°C° 0 mm 2 m/s 736 mmHg 81%
    02:00 +4°C° 0 mm 2 m/s 736 mmHg 80%
    03:00 +4°C° 0 mm 2 m/s 736 mmHg 79%
    04:00 +4°C° 0 mm 2 m/s 736 mmHg 79%
    05:00 +4°C° 0 mm 2 m/s 736 mmHg 78%
    06:00 +4°C° 0 mm 2 m/s 736 mmHg 78%
    07:00 +4°C° 0 mm 2 m/s 736 mmHg 78%
    08:00 +5°C° 0 mm 2 m/s 737 mmHg 75%
    09:00 +7°C° 0 mm 2 m/s 737 mmHg 72%
    10:00 +8°C° 0 mm 2 m/s 737 mmHg 69%
    11:00 +10°C° 0 mm 1 m/s 737 mmHg 66%
    12:00 +11°C° 0 mm 1 m/s 737 mmHg 64%
    13:00 +12°C° 0 mm 1 m/s 736 mmHg 61%
    14:00 +11°C° 0 mm 1 m/s 736 mmHg 65%
    15:00 +10°C° 0 mm 1 m/s 736 mmHg 70%
    16:00 +9°C° 0 mm 2 m/s 736 mmHg 74%
    17:00 +8°C° 0 mm 2 m/s 736 mmHg 76%
    18:00 +7°C° 0 mm 2 m/s 736 mmHg 78%
    19:00 +6°C° 0 mm 2 m/s 737 mmHg 80%
    20:00 +5°C° 0 mm 3 m/s 737 mmHg 79%
    21:00 +4°C° 0 mm 3 m/s 737 mmHg 78%
    22:00 +4°C° 0 mm 3 m/s 737 mmHg 77%
    23:00 +4°C° 0 mm 3 m/s 736 mmHg 77%

    Après-demain, 22 Janvier, Mardi

    Heure Température Précipitation Vent Pression Humidité
    00:00 +4°C° 0 mm 3 m/s 736 mmHg 77%
    01:00 +4°C° 0 mm 3 m/s 736 mmHg 77%
    02:00 +4°C° 0 mm 3 m/s 735 mmHg 77%
    03:00 +4°C° 0 mm 3 m/s 735 mmHg 77%
    04:00 +4°C° 0 mm 3 m/s 735 mmHg 77%
    05:00 +4°C° 0.1 mm 3 m/s 734 mmHg 77%
    06:00 +4°C° 0.1 mm 3 m/s 734 mmHg 77%
    07:00 +4°C° 0.1 mm 3 m/s 734 mmHg 78%
    08:00 +4°C° 0.3 mm 3 m/s 733 mmHg 77%
    09:00 +5°C° 0.3 mm 3 m/s 733 mmHg 77%
    10:00 +7°C° 0.3 mm 3 m/s 733 mmHg 77%
    11:00 +7°C° 0.7 mm 3 m/s 732 mmHg 79%
    12:00 +7°C° 0.7 mm 3 m/s 731 mmHg 81%
    13:00 +7°C° 0.7 mm 2 m/s 731 mmHg 83%
    14:00 +7°C° 0.2 mm 2 m/s 730 mmHg 81%
    15:00 +7°C° 0.2 mm 2 m/s 730 mmHg 80%
    16:00 +8°C° 0.2 mm 2 m/s 729 mmHg 79%
    17:00 +7°C° 0.3 mm 2 m/s 729 mmHg 80%
    18:00 +7°C° 0.3 mm 2 m/s 728 mmHg 81%
    19:00 +7°C° 0.3 mm 2 m/s 728 mmHg 81%
    20:00 +5°C° 0 mm 3 m/s 728 mmHg 81%
    21:00 +5°C° 0 mm 3 m/s 727 mmHg 80%
    22:00 +4°C° 0 mm 3 m/s 727 mmHg 79%
    23:00 +4°C° 0.1 mm 3 m/s 726 mmHg 79%

    23 Janvier, Mercredi

    Heure Température Précipitation Vent Pression Humidité
    00:00 +5°C° 0.1 mm 3 m/s 726 mmHg 79%
    01:00 +5°C° 0.1 mm 3 m/s 725 mmHg 79%
    02:00 +5°C° 0.2 mm 3 m/s 725 mmHg 79%
    03:00 +5°C° 0.2 mm 3 m/s 724 mmHg 79%
    04:00 +5°C° 0.2 mm 4 m/s 724 mmHg 79%
    05:00 +5°C° 3 mm 5 m/s 724 mmHg 83%
    06:00 +6°C° 3 mm 5 m/s 724 mmHg 87%
    07:00 +5°C° 3 mm 6 m/s 724 mmHg 90%
    08:00 +6°C° 1.6 mm 5 m/s 725 mmHg 90%
    09:00 +6°C° 1.6 mm 4 m/s 725 mmHg 90%
    10:00 +6°C° 1.6 mm 4 m/s 726 mmHg 90%
    11:00 +6°C° 1.4 mm 4 m/s 726 mmHg 87%
    12:00 +7°C° 1.4 mm 4 m/s 726 mmHg 83%
    13:00 +7°C° 1.4 mm 4 m/s 726 mmHg 79%
    14:00 +7°C° 0.7 mm 4 m/s 726 mmHg 79%
    15:00 +7°C° 0.7 mm 4 m/s 726 mmHg 79%
    16:00 +6°C° 0.7 mm 4 m/s 726 mmHg 80%
    17:00 +7°C° 0.2 mm 3 m/s 726 mmHg 80%
    18:00 +5°C° 0.2 mm 3 m/s 726 mmHg 80%
    19:00 +4°C° 0.2 mm 3 m/s 727 mmHg 80%
    20:00 +4°C° 0 mm 3 m/s 727 mmHg 80%
    21:00 +4°C° 0 mm 3 m/s 726 mmHg 79%
    22:00 +3°C° 0 mm 3 m/s 726 mmHg 78%
    23:00 +3°C° 0 mm 3 m/s 726 mmHg 77%

    24 Janvier, Jeudi

    Heure Température Précipitation Vent Pression Humidité
    00:00 +3°C° 0 mm 3 m/s 725 mmHg 76%
    01:00 +3°C° 0 mm 3 m/s 725 mmHg 75%
    02:00 +3°C° 0 mm 3 m/s 724 mmHg 73%
    03:00 +3°C° 0 mm 3 m/s 724 mmHg 71%
    04:00 +3°C° 0 mm 3 m/s 723 mmHg 70%
    05:00 +3°C° 0 mm 4 m/s 723 mmHg 70%
    06:00 +3°C° 0 mm 4 m/s 722 mmHg 70%
    07:00 +3°C° 0 mm 4 m/s 722 mmHg 70%
    08:00 +4°C° 0.1 mm 4 m/s 722 mmHg 70%
    09:00 +5°C° 0.1 mm 4 m/s 722 mmHg 70%
    10:00 +6°C° 0.1 mm 4 m/s 722 mmHg 71%
    11:00 +7°C° 0.5 mm 3 m/s 721 mmHg 74%
    12:00 +7°C° 0.5 mm 2 m/s 721 mmHg 78%
    13:00 +7°C° 0.5 mm 2 m/s 720 mmHg 81%
    14:00 +7°C° 0.5 mm 2 m/s 720 mmHg 82%
    15:00 +7°C° 0.5 mm 2 m/s 720 mmHg 83%
    16:00 +5°C° 0.5 mm 3 m/s 719 mmHg 83%
    17:00 +5°C° 0.6 mm 3 m/s 719 mmHg 83%
    18:00 +5°C° 0.6 mm 3 m/s 719 mmHg 83%
    19:00 +5°C° 0.6 mm 3 m/s 720 mmHg 83%
    20:00 +4°C° 0.6 mm 3 m/s 719 mmHg 83%
    21:00 +4°C° 0.6 mm 3 m/s 719 mmHg 83%
    22:00 +4°C° 0.6 mm 3 m/s 719 mmHg 83%
    23:00 +4°C° 0.5 mm 3 m/s 719 mmHg 83%

    25 Janvier, Vendredi

    Heure Température Précipitation Vent Pression Humidité
    00:00 +4°C° 0.5 mm 3 m/s 719 mmHg 83%
    01:00 +4°C° 0.5 mm 3 m/s 719 mmHg 83%
    02:00 +4°C° 1.1 mm 3 m/s 719 mmHg 85%
    03:00 +5°C° 1.1 mm 2 m/s 719 mmHg 86%
    04:00 +5°C° 1.1 mm 2 m/s 719 mmHg 88%
    05:00 +5°C° 1.2 mm 2 m/s 719 mmHg 87%
    06:00 +5°C° 1.2 mm 2 m/s 719 mmHg 87%
    07:00 +3°C° 1.2 mm 3 m/s 720 mmHg 87%
    08:00 +5°C° 0.3 mm 2 m/s 720 mmHg 85%
    09:00 +5°C° 0.3 mm 2 m/s 720 mmHg 84%
    10:00 +6°C° 0.3 mm 2 m/s 720 mmHg 83%
    11:00 +6°C° 0.1 mm 2 m/s 720 mmHg 81%
    12:00 +7°C° 0.1 mm 3 m/s 720 mmHg 79%
    13:00 +7°C° 0.1 mm 3 m/s 720 mmHg 77%
    14:00 +7°C° 0.1 mm 3 m/s 721 mmHg 78%
    15:00 +7°C° 0.1 mm 2 m/s 721 mmHg 79%
    16:00 +7°C° 0.1 mm 2 m/s 721 mmHg 80%
    17:00 +6°C° 0 mm 2 m/s 722 mmHg 80%
    18:00 +4°C° 0 mm 3 m/s 722 mmHg 80%
    19:00 +4°C° 0 mm 3 m/s 723 mmHg 80%
    20:00 +4°C° 0 mm 3 m/s 724 mmHg 80%
    21:00 +3°C° 0 mm 3 m/s 724 mmHg 80%
    22:00 +3°C° 0 mm 3 m/s 725 mmHg 79%
    23:00 +3°C° 0 mm 3 m/s 725 mmHg 79%
    Voir plus